DLH119 EDDM-EDDF

Flight info

Callsign DLH119
Flight time 0h 42m
Altitude 24000
Route GIVMI6E GIVMI Y101 ERNAS T161 DEBHI DEBHI1B
Aircraft A321/M-SDE2E3FGIJ1LORWXYZ/HB1

Departure

Time 2026-05-07 18:55
Airport Munich Airport (EDDM)

Arrival

Time 2026-05-07 19:38
Airport Frankfurt Main Airport (EDDF)
Time Latitude Longitude Altitude Speed Heading
2026-05-07 17:40 48.35689 11.79259 1485 ft 0 kts 263°
2026-05-07 18:38 48.35689 11.79260 1485 ft 1 kts 263°
2026-05-07 18:38 48.35692 11.79294 1481 ft 4 kts 263°
2026-05-07 18:38 48.35695 11.79332 1471 ft 4 kts 263°
2026-05-07 18:39 48.35697 11.79363 1473 ft 4 kts 270°
2026-05-07 18:39 48.35692 11.79398 1475 ft 4 kts 307°
2026-05-07 18:39 48.35675 11.79416 1474 ft 3 kts 353°
2026-05-07 18:39 48.35654 11.79419 1473 ft 0 kts 353°
2026-05-07 18:42 48.35668 11.79420 1473 ft 5 kts
2026-05-07 18:42 48.35712 11.79452 1476 ft 9 kts 28°
2026-05-07 18:42 48.35772 11.79500 1478 ft 11 kts 28°
2026-05-07 18:42 48.35852 11.79523 1477 ft 13 kts 355°
2026-05-07 18:43 48.35894 11.79514 1482 ft 1 kts 349°
2026-05-07 18:43 48.35896 11.79513 1481 ft 0 kts 349°
2026-05-07 18:43 48.35897 11.79513 1473 ft 0 kts 346°
2026-05-07 18:44 48.35906 11.79487 1477 ft 9 kts 281°
2026-05-07 18:44 48.35904 11.79344 1475 ft 16 kts 268°
2026-05-07 18:44 48.35933 11.79194 1476 ft 15 kts 326°
2026-05-07 18:44 48.36023 11.79147 1479 ft 3 kts 351°
2026-05-07 18:45 48.36024 11.79147 1480 ft 0 kts 351°
2026-05-07 18:46 48.36055 11.79150 1485 ft 10 kts 20°
2026-05-07 18:46 48.36102 11.79273 1480 ft 15 kts 52°
2026-05-07 18:46 48.36196 11.79343 1476 ft 16 kts 54°
2026-05-07 18:46 48.36217 11.79524 1481 ft 20 kts 83°
2026-05-07 18:47 48.36234 11.79736 1485 ft 21 kts 83°
2026-05-07 18:47 48.36252 11.79961 1481 ft 22 kts 83°
2026-05-07 18:47 48.36272 11.80198 1485 ft 23 kts 83°
2026-05-07 18:47 48.36289 11.80447 1485 ft 24 kts 84°
2026-05-07 18:48 48.36308 11.80703 1479 ft 25 kts 84°
2026-05-07 18:48 48.36329 11.80970 1485 ft 26 kts 83°
2026-05-07 18:48 48.36351 11.81248 1475 ft 27 kts 83°
2026-05-07 18:48 48.36372 11.81531 1483 ft 28 kts 83°
2026-05-07 18:49 48.36394 11.81808 1475 ft 20 kts 83°
2026-05-07 18:49 48.36418 11.81986 1480 ft 9 kts 52°
2026-05-07 18:49 48.36420 11.81990 1481 ft 0 kts 47°
2026-05-07 18:52 48.36421 11.81990 1481 ft 1 kts 47°
2026-05-07 18:53 48.36431 11.82002 1483 ft 4 kts 33°
2026-05-07 18:53 48.36472 11.82003 1477 ft 9 kts 347°
2026-05-07 18:53 48.36541 11.81986 1481 ft 10 kts 353°
2026-05-07 18:53 48.36559 11.81983 1485 ft 0 kts 353°
2026-05-07 18:54 48.36560 11.81983 1485 ft 1 kts 353°
2026-05-07 18:54 48.36592 11.81977 1483 ft 7 kts 353°
2026-05-07 18:54 48.36656 11.81956 1473 ft 11 kts 328°
2026-05-07 18:55 48.36665 11.81822 1476 ft 28 kts 263°
2026-05-07 18:55 48.36611 11.81111 1486 ft 106 kts 263°
2026-05-07 18:55 48.36502 11.79670 1486 ft 167 kts 263°
2026-05-07 18:55 48.36370 11.77889 2162 ft 168 kts 265°
2026-05-07 18:56 48.36250 11.76159 2988 ft 172 kts 265°
2026-05-07 18:56 48.36112 11.74261 3449 ft 193 kts 264°
2026-05-07 18:56 48.35950 11.72142 3717 ft 216 kts 264°
2026-05-07 18:56 48.35770 11.69818 4168 ft 229 kts 266°
2026-05-07 18:57 48.35974 11.67444 4958 ft 235 kts 290°
2026-05-07 18:57 48.36791 11.65178 5381 ft 257 kts 301°
2026-05-07 18:57 48.37744 11.62855 6105 ft 264 kts 301°
2026-05-07 18:57 48.38720 11.60500 6954 ft 266 kts 301°
2026-05-07 18:58 48.39701 11.58130 7792 ft 267 kts 300°
2026-05-07 18:58 48.40685 11.55739 8630 ft 269 kts 300°
2026-05-07 18:58 48.41674 11.53318 9459 ft 272 kts 299°
2026-05-07 18:58 48.42655 11.50910 10256 ft 274 kts 299°
2026-05-07 18:59 48.43656 11.48444 10992 ft 276 kts 298°
2026-05-07 18:59 48.44715 11.46000 11711 ft 281 kts 306°
2026-05-07 18:59 48.46161 11.43963 12431 ft 289 kts 322°
2026-05-07 18:59 48.48020 11.42556 12764 ft 314 kts 339°
2026-05-07 19:00 48.50247 11.41853 12949 ft 336 kts 346°
2026-05-07 19:00 48.52580 11.41235 13478 ft 344 kts 347°
2026-05-07 19:00 48.54957 11.40611 14095 ft 348 kts 347°
2026-05-07 19:00 48.57317 11.39985 14703 ft 351 kts 346°
2026-05-07 19:01 48.59732 11.39335 15340 ft 353 kts 346°
2026-05-07 19:01 48.62164 11.38673 15980 ft 355 kts 346°
2026-05-07 19:01 48.64607 11.38001 16623 ft 357 kts 346°
2026-05-07 19:01 48.67068 11.37320 17240 ft 360 kts 346°
2026-05-07 19:02 48.69424 11.36431 17798 ft 360 kts 337°
2026-05-07 19:02 48.71700 11.34843 18357 ft 359 kts 326°
2026-05-07 19:02 48.73794 11.32749 18884 ft 361 kts 323°
2026-05-07 19:02 48.75884 11.30617 19433 ft 363 kts 323°
2026-05-07 19:03 48.77991 11.28478 19986 ft 365 kts 323°
2026-05-07 19:03 48.80109 11.26334 20516 ft 367 kts 323°
2026-05-07 19:03 48.82244 11.24173 21021 ft 370 kts 323°
2026-05-07 19:03 48.84374 11.21959 21513 ft 371 kts 320°
2026-05-07 19:04 48.86297 11.19404 22001 ft 372 kts 315°
2026-05-07 19:04 48.88215 11.16736 22494 ft 375 kts 315°
2026-05-07 19:04 48.90147 11.14046 22943 ft 377 kts 315°
2026-05-07 19:04 48.92084 11.11346 23223 ft 378 kts 315°
2026-05-07 19:05 48.94029 11.08626 23508 ft 379 kts 315°
2026-05-07 19:05 48.95957 11.05929 23764 ft 380 kts 315°
2026-05-07 19:05 48.97914 11.03193 23994 ft 382 kts 315°
2026-05-07 19:05 48.99875 11.00451 24074 ft 377 kts 315°
2026-05-07 19:06 49.01783 10.97784 24088 ft 369 kts 315°
2026-05-07 19:06 49.05516 10.92530 24107 ft 366 kts 315°
2026-05-07 19:06 49.07386 10.89888 24106 ft 366 kts 315°
2026-05-07 19:07 49.09257 10.87249 24108 ft 366 kts 315°
2026-05-07 19:07 49.11130 10.84607 24103 ft 366 kts 315°
2026-05-07 19:07 49.13000 10.81968 24117 ft 366 kts 315°
2026-05-07 19:07 49.14871 10.79321 24119 ft 366 kts 315°
2026-05-07 19:08 49.16736 10.76675 24118 ft 366 kts 315°
2026-05-07 19:08 49.18574 10.74059 24116 ft 366 kts 315°
2026-05-07 19:08 49.20426 10.71395 24121 ft 365 kts 313°
2026-05-07 19:08 49.22231 10.68655 24077 ft 365 kts 312°
2026-05-07 19:09 49.23996 10.65874 24081 ft 365 kts 311°
2026-05-07 19:09 49.25751 10.63060 24089 ft 365 kts 311°
2026-05-07 19:09 49.27504 10.60239 24080 ft 366 kts 312°
2026-05-07 19:09 49.29273 10.57406 24070 ft 367 kts 312°
2026-05-07 19:10 49.31024 10.54612 24061 ft 367 kts 312°
2026-05-07 19:10 49.32801 10.51786 24060 ft 368 kts 312°
2026-05-07 19:10 49.34584 10.48957 24062 ft 368 kts 312°
2026-05-07 19:10 49.36310 10.46058 24062 ft 367 kts 306°
2026-05-07 19:11 49.37785 10.42918 23828 ft 357 kts 304°
2026-05-07 19:11 49.39181 10.39873 23599 ft 350 kts 303°
2026-05-07 19:11 49.40574 10.36824 23359 ft 347 kts 303°
2026-05-07 19:11 49.41956 10.33790 23143 ft 346 kts 303°
2026-05-07 19:12 49.43332 10.30762 22913 ft 344 kts 303°
2026-05-07 19:12 49.44699 10.27746 22694 ft 342 kts 303°
2026-05-07 19:12 49.46059 10.24750 22482 ft 341 kts 303°
2026-05-07 19:12 49.47417 10.21762 22253 ft 340 kts 303°
2026-05-07 19:13 49.48753 10.18822 22050 ft 339 kts 303°
2026-05-07 19:13 49.50098 10.15854 21834 ft 337 kts 303°
2026-05-07 19:13 49.51440 10.12892 21623 ft 336 kts 303°
2026-05-07 19:13 49.52776 10.09938 21410 ft 335 kts 303°
2026-05-07 19:14 49.54105 10.06990 21201 ft 335 kts 304°
2026-05-07 19:14 49.55436 10.04035 20983 ft 335 kts 304°
2026-05-07 19:14 49.56766 10.01082 20771 ft 334 kts 304°
2026-05-07 19:14 49.58087 9.98145 20576 ft 333 kts 303°
2026-05-07 19:15 49.59403 9.95217 20370 ft 331 kts 303°
2026-05-07 19:15 49.60714 9.92296 20153 ft 330 kts 303°
2026-05-07 19:15 49.62006 9.89416 19956 ft 330 kts 303°
2026-05-07 19:15 49.63313 9.86508 19745 ft 329 kts 303°
2026-05-07 19:16 49.64618 9.83602 19544 ft 328 kts 303°
2026-05-07 19:16 49.65917 9.80703 19341 ft 327 kts 303°
2026-05-07 19:16 49.67194 9.77841 19138 ft 326 kts 303°
2026-05-07 19:16 49.68475 9.74963 18936 ft 325 kts 303°
2026-05-07 19:17 49.69753 9.72084 18726 ft 324 kts 303°
2026-05-07 19:17 49.71028 9.69214 18530 ft 323 kts 303°
2026-05-07 19:17 49.72300 9.66350 18324 ft 322 kts 303°
2026-05-07 19:17 49.73568 9.63494 18103 ft 321 kts 303°
2026-05-07 19:18 49.74406 9.61611 17910 ft 321 kts 303°
2026-05-07 19:18 49.75670 9.58768 17456 ft 319 kts 303°
2026-05-07 19:18 49.77324 9.55038 16930 ft 316 kts 303°
2026-05-07 19:18 49.78163 9.53145 16666 ft 314 kts 303°
2026-05-07 19:19 49.79398 9.50355 16269 ft 314 kts 303°
2026-05-07 19:19 49.80617 9.47600 15883 ft 313 kts 303°
2026-05-07 19:19 49.81841 9.44822 15484 ft 311 kts 303°
2026-05-07 19:19 49.83057 9.42053 15088 ft 309 kts 303°
2026-05-07 19:20 49.84262 9.39307 14706 ft 307 kts 303°
2026-05-07 19:20 49.85459 9.36577 14321 ft 305 kts 302°
2026-05-07 19:20 49.86424 9.33709 13956 ft 302 kts 290°
2026-05-07 19:20 49.87041 9.30601 13641 ft 302 kts 286°
2026-05-07 19:21 49.87634 9.27479 13336 ft 301 kts 286°
2026-05-07 19:21 49.88231 9.24360 13023 ft 300 kts 286°
2026-05-07 19:21 49.88824 9.21264 12736 ft 299 kts 286°
2026-05-07 19:21 49.89415 9.18178 12439 ft 298 kts 286°
2026-05-07 19:22 49.90006 9.15087 12142 ft 296 kts 286°
2026-05-07 19:22 49.90586 9.12027 11845 ft 295 kts 286°
2026-05-07 19:22 49.91157 9.09013 11541 ft 295 kts 286°
2026-05-07 19:22 49.91735 9.05958 11255 ft 294 kts 286°
2026-05-07 19:23 49.92311 9.02921 11073 ft 293 kts 286°
2026-05-07 19:23 49.92889 8.99885 11069 ft 293 kts 286°
2026-05-07 19:23 49.93471 8.96840 11071 ft 294 kts 286°
2026-05-07 19:23 49.94053 8.93796 11074 ft 294 kts 286°
2026-05-07 19:24 49.94632 8.90758 11072 ft 294 kts 286°
2026-05-07 19:24 49.95204 8.87747 11074 ft 294 kts 286°
2026-05-07 19:24 49.95783 8.84698 11076 ft 294 kts 286°
2026-05-07 19:24 49.96359 8.81657 11022 ft 291 kts 286°
2026-05-07 19:25 49.96924 8.78679 10714 ft 285 kts 286°
2026-05-07 19:25 49.97484 8.75733 10326 ft 283 kts 286°
2026-05-07 19:25 49.97849 8.72743 9928 ft 281 kts 273°
2026-05-07 19:25 49.97702 8.69752 9499 ft 280 kts 258°
2026-05-07 19:26 49.97099 8.66878 9070 ft 279 kts 250°
2026-05-07 19:26 49.96415 8.64057 8663 ft 277 kts 250°
2026-05-07 19:26 49.95740 8.61261 8258 ft 276 kts 250°
2026-05-07 19:26 49.95080 8.58526 8082 ft 273 kts 250°
2026-05-07 19:27 49.94410 8.55754 8084 ft 275 kts 250°
2026-05-07 19:27 49.93736 8.52964 8076 ft 275 kts 250°
2026-05-07 19:27 49.93068 8.50200 7727 ft 273 kts 250°
2026-05-07 19:27 49.92403 8.47447 7333 ft 271 kts 250°
2026-05-07 19:28 49.91742 8.44708 6939 ft 269 kts 251°
2026-05-07 19:28 49.91087 8.41998 6560 ft 268 kts 251°
2026-05-07 19:28 49.90434 8.39300 6172 ft 266 kts 251°
2026-05-07 19:28 49.89784 8.36609 5760 ft 266 kts 251°
2026-05-07 19:29 49.89137 8.33927 5353 ft 265 kts 251°
2026-05-07 19:29 49.88490 8.31250 4945 ft 265 kts 251°
2026-05-07 19:29 49.87864 8.28667 4804 ft 254 kts 251°
2026-05-07 19:29 49.87252 8.26159 4670 ft 243 kts 251°
2026-05-07 19:30 49.86664 8.23753 4418 ft 237 kts 251°
2026-05-07 19:30 49.86268 8.21323 4130 ft 230 kts 273°
2026-05-07 19:30 49.86716 8.19039 4020 ft 225 kts 306°
2026-05-07 19:30 49.87899 8.17458 4023 ft 227 kts 331°
2026-05-07 19:31 49.89371 8.16589 4027 ft 227 kts 349°
2026-05-07 19:31 49.90947 8.16473 4027 ft 227 kts
2026-05-07 19:31 49.92448 8.17112 4025 ft 228 kts 24°
2026-05-07 19:31 49.93766 8.18469 4025 ft 228 kts 42°
2026-05-07 19:32 49.94741 8.20426 4026 ft 230 kts 61°
2026-05-07 19:32 49.95344 8.22730 4027 ft 231 kts 68°
2026-05-07 19:32 49.95909 8.25057 4028 ft 225 kts 68°
2026-05-07 19:32 49.96435 8.27229 3873 ft 212 kts 68°
2026-05-07 19:33 49.96948 8.29342 3612 ft 207 kts 68°
2026-05-07 19:33 49.97443 8.31383 3340 ft 196 kts 68°
2026-05-07 19:33 49.97912 8.33324 3083 ft 187 kts 68°
2026-05-07 19:33 49.98354 8.35150 2838 ft 174 kts 68°
2026-05-07 19:34 49.98765 8.36850 2605 ft 163 kts 68°
2026-05-07 19:34 49.99153 8.38457 2387 ft 155 kts 68°
2026-05-07 19:34 49.99521 8.39980 2181 ft 147 kts 68°
2026-05-07 19:34 49.99874 8.41443 1988 ft 143 kts 68°
2026-05-07 19:35 50.00221 8.42882 1797 ft 142 kts 68°
2026-05-07 19:35 50.00566 8.44314 1611 ft 141 kts 69°
2026-05-07 19:35 50.00911 8.45748 1434 ft 142 kts 69°
2026-05-07 19:35 50.01252 8.47179 1245 ft 142 kts 69°
2026-05-07 19:36 50.01588 8.48613 1074 ft 140 kts 69°
2026-05-07 19:36 50.01938 8.50017 879 ft 139 kts 68°
2026-05-07 19:36 50.02270 8.51407 678 ft 138 kts 69°
2026-05-07 19:36 50.02609 8.52795 481 ft 136 kts 69°
2026-05-07 19:37 50.02931 8.54154 334 ft 127 kts 69°
2026-05-07 19:37 50.03195 8.55263 350 ft 86 kts 69°
2026-05-07 19:37 50.03368 8.55984 350 ft 65 kts 69°
2026-05-07 19:37 50.03516 8.56601 355 ft 58 kts 69°
2026-05-07 19:38 50.03678 8.57049 357 ft 42 kts 44°
2026-05-07 19:38 50.03887 8.57321 361 ft 37 kts 40°
2026-05-07 19:38 50.03998 8.57593 368 ft 29 kts 70°
2026-05-07 19:38 50.04066 8.57879 367 ft 28 kts 70°
2026-05-07 19:39 50.04148 8.58136 368 ft 26 kts 38°
2026-05-07 19:39 50.04267 8.58198 366 ft 11 kts 360°
2026-05-07 19:39 50.04353 8.58170 369 ft 14 kts 343°
2026-05-07 19:39 50.04449 8.58112 367 ft 17 kts 338°
2026-05-07 19:40 50.04553 8.58028 365 ft 13 kts 291°
2026-05-07 19:40 50.04521 8.57922 366 ft 15 kts 245°
2026-05-07 19:40 50.04474 8.57730 366 ft 21 kts 250°
2026-05-07 19:40 50.04422 8.57506 363 ft 24 kts 250°
2026-05-07 19:41 50.04362 8.57252 363 ft 26 kts 250°
2026-05-07 19:41 50.04297 8.56983 364 ft 28 kts 249°
2026-05-07 19:41 50.04317 8.56824 360 ft 13 kts 344°
2026-05-07 19:41 50.04383 8.56841 364 ft 0 kts
2026-05-07 19:43 50.04383 8.56842 365 ft 0 kts
2026-05-07 19:47 50.04388 8.56842 366 ft 0 kts
2026-05-07 19:47 50.04401 8.56845 366 ft 5 kts
2026-05-07 19:48 50.04456 8.56855 366 ft 11 kts
2026-05-07 19:48 50.04537 8.56885 359 ft 13 kts 13°
2026-05-07 19:48 50.04580 8.56864 361 ft 8 kts 294°
2026-05-07 19:48 50.04603 8.56785 362 ft 6 kts 295°
2026-05-07 19:49 50.04608 8.56771 359 ft 0 kts 295°